TimeEDT,TemperatureF,Dew PointF,Humidity,Sea Level PressureIn,VisibilityMPH,Wind Direction,Wind SpeedMPH,Gust SpeedMPH,PrecipitationIn,Events,Conditions,WindDirDegrees,DateUTC
12:06 AM,62.6,62.6,100,29.90,0.2,Calm,Calm,-,N/A,Fog,Fog,0,2012-10-03 04:06:00
12:30 AM,60.8,60.8,100,29.90,0.2,Calm,Calm,-,N/A,Fog,Fog,0,2012-10-03 04:30:00
12:53 AM,61.0,61.0,100,29.88,0.2,West,3.5,-,N/A,Fog,Fog,270,2012-10-03 04:53:00
1:53 AM,61.0,61.0,100,29.91,0.2,Calm,Calm,-,N/A,Fog,Fog,0,2012-10-03 05:53:00
2:53 AM,60.1,60.1,100,29.93,0.5,WSW,4.6,-,N/A,Fog,Fog,250,2012-10-03 06:53:00
3:39 AM,60.8,60.8,100,29.96,2.0,Calm,Calm,-,N/A,,Overcast,0,2012-10-03 07:39:00
3:53 AM,60.1,60.1,100,29.96,3.0,Calm,Calm,-,N/A,,Overcast,0,2012-10-03 07:53:00
4:04 AM,60.8,60.8,100,29.97,3.0,Calm,Calm,-,N/A,,Overcast,0,2012-10-03 08:04:00
4:14 AM,60.8,60.8,100,29.97,2.5,Calm,Calm,-,N/A,,Overcast,0,2012-10-03 08:14:00
4:26 AM,60.8,60.8,100,29.98,3.0,Calm,Calm,-,N/A,,Overcast,0,2012-10-03 08:26:00
4:53 AM,61.0,61.0,100,29.97,4.0,Calm,Calm,-,N/A,,Overcast,0,2012-10-03 08:53:00
5:53 AM,60.1,60.1,100,29.98,3.0,SE,4.6,-,N/A,,Mostly Cloudy,130,2012-10-03 09:53:00
6:28 AM,60.8,60.8,100,30.00,3.0,SE,5.8,-,0.01,,Overcast,140,2012-10-03 10:28:00
6:33 AM,60.8,60.8,100,30.00,2.5,SE,5.8,-,0.01,,Overcast,140,2012-10-03 10:33:00
6:53 AM,60.1,60.1,100,30.00,2.5,South,4.6,-,0.01,,Overcast,170,2012-10-03 10:53:00
7:06 AM,60.8,60.8,100,30.01,3.0,South,4.6,-,N/A,,Overcast,170,2012-10-03 11:06:00
7:29 AM,60.8,60.8,100,30.02,4.0,South,5.8,-,N/A,,Mostly Cloudy,180,2012-10-03 11:29:00
7:53 AM,60.1,60.1,100,30.02,5.0,South,4.6,-,N/A,,Partly Cloudy,180,2012-10-03 11:53:00
8:53 AM,61.0,57.9,90,30.04,10.0,SSW,8.1,-,N/A,,Scattered Clouds,210,2012-10-03 12:53:00
9:28 AM,60.8,57.2,88,30.06,10.0,SW,10.4,-,N/A,,Overcast,220,2012-10-03 13:28:00
9:53 AM,62.1,55.9,80,30.06,10.0,SW,13.8,17.3,N/A,,Mostly Cloudy,220,2012-10-03 13:53:00
10:53 AM,60.1,53.1,78,30.09,10.0,SSW,12.7,-,N/A,,Overcast,210,2012-10-03 14:53:00
11:53 AM,61.0,52.0,72,30.09,10.0,SW,10.4,-,N/A,,Overcast,220,2012-10-03 15:53:00
12:21 PM,60.8,53.6,77,30.10,10.0,SSW,10.4,-,N/A,,Overcast,210,2012-10-03 16:21:00
12:53 PM,62.1,53.1,72,30.09,10.0,SW,10.4,-,N/A,,Overcast,220,2012-10-03 16:53:00
1:19 PM,64.4,53.6,68,30.10,10.0,SW,8.1,-,N/A,,Overcast,220,2012-10-03 17:19:00
1:53 PM,64.9,53.1,65,30.09,10.0,SW,8.1,-,N/A,,Overcast,230,2012-10-03 17:53:00
2:53 PM,66.0,53.1,63,30.07,10.0,SW,10.4,-,N/A,,Overcast,220,2012-10-03 18:53:00
4:53 PM,66.9,53.1,61,30.07,10.0,SW,4.6,-,N/A,,Mostly Cloudy,220,2012-10-03 20:53:00
5:53 PM,66.9,53.1,61,30.08,10.0,SW,4.6,-,N/A,,Scattered Clouds,220,2012-10-03 21:53:00
6:53 PM,64.9,53.1,65,30.09,10.0,SSW,3.5,-,N/A,,Clear,210,2012-10-03 22:53:00
7:53 PM,64.9,53.1,65,30.10,10.0,South,3.5,-,N/A,,Clear,170,2012-10-03 23:53:00
8:53 PM,63.0,53.1,70,30.11,10.0,SSE,4.6,-,N/A,,Clear,160,2012-10-04 00:53:00
9:53 PM,63.0,53.1,70,30.12,10.0,South,5.8,-,N/A,,Clear,180,2012-10-04 01:53:00
10:53 PM,62.1,53.1,72,30.14,10.0,SSW,3.5,-,N/A,,Clear,200,2012-10-04 02:53:00
11:53 PM,61.0,53.1,75,30.14,10.0,SSW,3.5,-,N/A,,Clear,200,2012-10-04 03:53:00